Location: Newark
(31.0436°N, 112.2008°E)
Time: 06:43:34
(UTC+00:00)

X-37B - Visible Passes

Search period start: 04 March 2021 00:00
Search period end: 14 March 2021 00:00
Orbit: 383 x 391 km, 45.0° (Epoch: 27 February)

Date Brightness Start Highest point End Pass type
(mag) Time Alt. Az. Time Alt. Az. Time Alt. Az.
04 Mar 0.6 21:39:04 51° WSW 21:39:30 58° SW 21:42:36 10° SE visible
05 Mar 3.8 20:43:59 12° ESE 20:43:59 12° ESE 20:44:16 10° ESE visible
05 Mar 2.8 22:16:25 10° WSW 22:17:27 11° SW 22:18:29 10° SSW visible
06 Mar 3.1 21:21:22 13° S 21:21:22 13° S 21:21:54 10° SSE visible
08 Mar 2.9 11:15:51 10° SSE 11:16:37 11° SE 11:17:06 10° SE visible
09 Mar 0.7 11:51:27 10° SW 11:54:34 54° SE 11:54:34 54° SE visible
10 Mar 2.9 12:29:58 10° W 12:31:54 25° WNW 12:31:54 25° WNW visible
11 Mar 1.0 11:31:15 10° WSW 11:34:25 63° NW 11:36:47 17° NE visible
12 Mar 3.0 12:10:35 10° WNW 12:12:55 18° NNW 12:13:50 16° N visible
13 Mar 2.3 11:11:30 10° W 11:14:22 30° NNW 11:17:16 10° NE visible
